Weather Roundup
Issued by NWS

Home | Current Version | Previous Version | Graphics & Text | Print | Product List | Glossary Off
Versions: 1 2 3 4 5 6 7 8 9 10 11 12 13 14 15 16 17 18 19 20 21 22 23 24 25 26 27 28 29 30 31 32 33 34 35 36 37 38 39 40 41 42 43 44 45 46 47 48 49 50

637
NZUS93 KARX 130610
HRRWXR

CURRENT HOURLY OBSERVATIONS ACROSS
MUCH OF THE UPPER MISSISSIPPI VALLEY
NATIONAL WEATHER SERVICE LA CROSSE WI
1200 AM CST SAT FEB 13 2016


...SOUTHEAST MINNESOTA...


CITY           SKY/WX    TMP DP  RH WIND       PRES   REMARKS
ROCHESTER      CLOUDY    -3 -12  65 NW14      30.54R WCI -22
ROCHESTER/MAYO FAIR       1  -9  63 W12       30.55R WCI -16
WINONA         CLOUDY     3  -9  55 NW12      30.59S WCI -13
AUSTIN         CLOUDY     0  -8  71 NW9       30.56R WCI -16
ALBERT LEA     CLOUDY     0  -9  65 NW5       30.57R WCI -10
DODGE CENTER   CLOUDY    -2 -11  65 NW12      30.54R WCI -20
PRESTON        CLOUDY    -3 -13  63 NW8       30.53S WCI -18
OWATONNA       CLOUDY    -2 -11  65 W8        30.59R WCI -17
FARIBAULT      CLOUDY    -2 -11  65 W6        30.60R WCI -14
$$

...ELSEWHERE IN MINNESOTA...


CITY           SKY/WX    TMP DP  RH WIND       PRES   REMARKS
MINNEAPOLIS    CLOUDY     0 -12  57 NW12      30.62R WCI -17
INTNL FALLS    CLOUDY   -15 -21  74 W7        30.54R WCI -31
DULUTH         CLOUDY    -9 -19  61 NW9       30.50R WCI -26
RED WING       CLOUDY    -6 -15  65 N2        30.59R
REDWOOD FALLS  CLOUDY    -2  -7  79 NW9       30.64S WCI -18
MANKATO        CLOUDY     0  -9  65 NW9       30.61R WCI -16
WORTHINGTON    CLOUDY    -6 -11  77 N7        30.58F WCI -20
FAIRMONT       CLOUDY     0  -8  71 NW12      30.59S WCI -18
$$

...SOUTHWEST WISCONSIN...


CITY           SKY/WX    TMP DP  RH WIND       PRES   REMARKS
LA CROSSE      CLOUDY    -1 -13  56 NW7       30.58R WCI -14
PRAIRIE DU CHI CLOUDY     2 -11  53 NW7       30.58R WCI -10
BOSCOBEL       CLOUDY     1 -11  57 CALM      30.57R
LONE ROCK      CLEAR      1 -13  51 W5        30.55R WCI  -9
PLATTEVILLE    CLEAR      4  -9  55 NW3       30.52R
FORT MC COY    CLOUDY     1 -14  50 NW7       30.55R WCI -12
CAMP DOUGLAS   CLOUDY    -5 -16  59 W9        30.51R WCI -22
VIROQUA        FAIR      -2 -14  57 NW10      30.49S WCI -19
WIS DELLS      CLEAR      0 -17  45 W3        30.49S
$$

...ELSEWHERE IN WISCONSIN...


CITY           SKY/WX    TMP DP  RH WIND       PRES   REMARKS
MILWAUKEE      CLEAR      3 -13  47 NW13G21   30.47R WCI -14
MADISON        CLEAR      2 -14  47 NW8       30.50R WCI -12
GREEN BAY      CLEAR     -1 -12  59 W12       30.45R WCI -18
EAU CLAIRE     CLOUDY    -1 -17  46 NW7       30.54R WCI -14
BLACK RVR FLS  FAIR       1 -17  41 NW3       30.54R
MEDFORD        CLEAR     -6 -18  56 NW9       30.41R WCI -22
WAUSAU         CLEAR     -2 -15  54 NW9       30.41R WCI -18
WIS RAPIDS     CLEAR     -3 -17  51 NW7       30.49R WCI -16
MARSHFIELD     CLEAR     -3 -19  46 NW10      30.44R WCI -20
RICE LAKE      CLOUDY    -4 -17  53 NW5       30.54S WCI -14
$$

...NORTHEAST IOWA...


CITY           SKY/WX    TMP DP  RH WIND       PRES   REMARKS
WATERLOO       CLOUDY     1  -8  66 W7        30.61R WCI -12
DUBUQUE        CLEAR      4  -8  57 N13       30.52R WCI -13
DECORAH        CLOUDY     0 -13  55 NW7       30.54R WCI -13
MASON CITY     CLOUDY    -4  -9  79 W9        30.61R WCI -20
CHARLES CITY   CLOUDY     1 -11  55 NW12      30.58R WCI -15
OELWEIN        CLOUDY    -2 -11  65 NW10      30.57R WCI -19
$$

...ELSEWHERE IN IOWA...


CITY           SKY/WX    TMP DP  RH WIND       PRES   REMARKS
DES MOINES     CLEAR      5  -3  69 N7        30.64R WCI  -7
IOWA CITY      CLEAR      8  -5  55 NW8       30.62R WCI  -4
FORT DODGE     CLOUDY     0  -8  71 N6        30.62S WCI -12
MARSHALLTOWN   CLOUDY     1  -4  79 W9        30.61R WCI -14
CEDAR RAPIDS   CLEAR      5  -4  66 NW12      30.57S WCI -11
$$

...NORTHERN ILLINOIS...


CITY           SKY/WX    TMP DP  RH WIND       PRES   REMARKS
CHICAGO-OHARE  PTCLDY     7  -8  50 NW18      30.47R WCI -12
CHICAGO-MIDWAY PTCLDY     9  -9  44 NW18      30.47R WCI -10
MOLINE         CLEAR      9  -4  55 NW12      30.57R WCI  -6
ROCKFORD       CLEAR      7  -8  50 N16       30.53R WCI -11
PEORIA         CLEAR     10  -2  58 NW7       30.54R WCI  -1
$$

NOTE: "FAIR" INDICATES FEW OR NO CLOUDS BELOW 12,000 FEET WITH NO
SIGNIFICANT WEATHER AND/OR OBSTRUCTIONS TO VISIBILITY. WIND
SPEEDS ARE IN MILES-PER-HOUR.




USA.gov is the U.S. government's official web portal to all federal, state and local government web resources and services.